sat.trackr.live / text

‹ back to catalog

STARLINK-5839

NORAD 57051 · 2023-088D

PAYLOAD ACTIVE UNKNOWN

§ Identity

Operator
Country
US
Launch date
2023-06-22
Launch site
AFWTR
Launch vehicle
Mass (kg)
RCS (m²)

Purposes: comms

External: N2YO · Heavens-Above · Gunter

§ Orbital elements

Epoch: 2026-05-25T01:12:38.315808Z

Period
94.27 min
Inclination
43.0050°
Eccentricity
0.0001379
Mean motion
15.27580503 rev/d
Perigee alt
482.1 km
Apogee alt
484.0 km
Semi-major
6,861.2 km
B*
-7.5813e-6
RAAN
39.1763°
Arg perigee
250.6054°
Mean anomaly
109.4648°
Rev number
16,201

§ Raw data

STARLINK-58391 57051U 23088D   26145.05044347 -.00000471  00000+0 -75813-5 0  99962 57051  43.0050  39.1763 0001379 250.6054 109.4648 15.27580503162011

JSON: /api/v1/satellites/57051 · /tle

For live sub-satellite position, see the globe view (requires WebGL).

§ Visibility from observer

Set your observer location to see the next 7 days of passes ≥ 10°. The values pass through the URL so the page stays shareable.

No JS? Fill the form by hand. The geolocation button needs JavaScript.